This is the latest recevied weather packets stored in our database for station/object IU0KRR-10. If no packets are shown the sender has not sent any weather packets the latest 10 day(s).
| Time | Temp. | Humidity | Pressure | Rain* | Wind** | Luminosity | Snow |
|---|---|---|---|---|---|---|---|
| 1787936753 | 26.67° C | 38% | 876.3 hPa | - | - | - | - |
| 1787935852 | 27.22° C | 34% | 876.3 hPa | - | - | - | - |
| 1787934952 | 27.78° C | 33% | 876.5 hPa | - | - | - | - |
| 1787934050 | 28.89° C | 31% | 876.6 hPa | - | - | - | - |
| 1787933149 | 29.44° C | 34% | 876.6 hPa | - | - | - | - |
| 1787932248 | 30° C | 34% | 876.7 hPa | - | - | - | - |
| 1787931347 | 30.56° C | 33% | 876.9 hPa | - | - | - | - |
| 1787930447 | 31.11° C | 29% | 876.8 hPa | - | - | - | - |
| 1787929547 | 31.11° C | 29% | 876.9 hPa | - | - | - | - |
| 1787928645 | 30.56° C | 30% | 876.9 hPa | - | - | - | - |
| 1787927744 | 30.56° C | 32% | 877.3 hPa | - | - | - | - |
| 1787926843 | 31.11° C | 32% | 877.2 hPa | - | - | - | - |
| 1787926035 | 31.11° C | 32% | 877.2 hPa | - | - | - | - |
| 1787925942 | 31.11° C | 32% | 877.2 hPa | - | - | - | - |
| 1787925747 | 31.11° C | 31% | 877.1 hPa | - | - | - | - |
| 1787925511 | 31.67° C | 29% | 877.1 hPa | - | - | - | - |
| 1787925355 | 31.67° C | 29% | 877.3 hPa | - | - | - | - |
| 1787925268 | 31.67° C | 28% | 877.3 hPa | - | - | - | - |
| 1787925187 | 31.67° C | 30% | 877.4 hPa | - | - | - | - |
| 1787925042 | 31.11° C | 31% | 877.1 hPa | - | - | - | - |
| 1787925021 | 31.67° C | 29% | 877.4 hPa | - | - | - | - |
| 1787924896 | 31.67° C | 31% | 877.5 hPa | - | - | - | - |
| 1787924772 | 31.11° C | 30% | 877.5 hPa | - | - | - | - |
| 1787924715 | 31.11° C | 30% | 877.7 hPa | - | - | - | - |
| 1787924141 | 31.67° C | 29% | 877.1 hPa | - | - | - | - |
* Rain since midnight (hover to see other rain measurements)
** Current wind speed in m/s (hover to see current wind gust speed)